Hourly Weather Roundup
Issued by NWS Central Illinois

Home | Current Version | Previous Version | Text Only | Print | Product List | Glossary On
Versions: 1 2 3 4 5 6 7 8 9 10 11 12 13 14 15 16 17 18 19 20 21 22 23 24 25 26 27 28 29 30 31 32 33 34 35 36 37 38 39 40 41 42 43 44 45 46 47 48 49 50
342
NZUS43 KILX 261610
HWRILX

AREA WEATHER ROUNDUP
NATIONAL WEATHER SERVICE, LINCOLN IL
1100 AM CDT THU MAY 26 2016


CITY           SKY/WX    TMP DP  RH WIND       PRES   REMARKS
BLOOMINGTON    CLOUDY    68  65  90 S13       29.95F
CHAMPAIGN      LGT RAIN  65  63  93 S23       29.96F
DANVILLE       RAIN      64  64  97 S14       30.02R
DECATUR        CLOUDY    68  64  87 SE14      29.95F
EFFINGHAM      LGT RAIN  65  65 100 E14       29.97F
FLORA          RAIN      67  65  93 N5        30.05F
GALESBURG      CLOUDY    73  65  76 S12       29.92F
JACKSONVILLE   CLOUDY    74  67  78 SE10      29.93F
LACON          CLOUDY    72  64  76 SW8       29.92F
LAWRENCEVILLE  LGT RAIN  67  32  27 N8        30.10R
LITCHFIELD     CLOUDY    73  63  71 E6        29.96F
$$


CITY           SKY/WX    TMP DP  RH WIND       PRES   REMARKS
LINCOLN        CLOUDY    69  65  84 CALM      29.95R
MACOMB         MOSUNNY   74  66  77 S14       29.95F
MATTOON        LGT RAIN  65  62  90 SE13      29.97F
MT CARMEL AP   TSTM      66  63  90 N13       30.06F
OLNEY-NOBLE AP CLOUDY    64  64 100 NE5       30.05F
PARIS          RAIN      64  63  97 CALM      30.06F
PEORIA         CLOUDY    70  64  81 S8        29.94F
PONTIAC        CLOUDY    72  68  86 S8        29.95R
RANTOUL        CLOUDY    67  65  94 S16       29.98R
ROBINSON       TSTM      64  62  93 NW5       30.11R
SPRINGFIELD    PTSUNNY   72  65  78 SE14      29.93F
TAYLORVILLE    CLOUDY    70  66  88 E9        29.95F
$$

...REGIONAL REPORTS...


CITY           SKY/WX    TMP DP  RH WIND       PRES   REMARKS
CHICAGO O`HARE CLOUDY    75  64  68 SW9       29.93R
KANKAKEE       CLOUDY    67  65  96 CALM      29.95R
MOLINE         PTSUNNY   79  65  62 S10       29.90F HX  81
MOUNT STERLING PTSUNNY   73  67  81 S8        29.93F
MOUNT VERNON   CLOUDY    66  61  82 NE8G16    30.02F
PITTSFIELD     MOSUNNY   76  68  78 SE9       29.93F
QUINCY         CLOUDY    74  66  76 SE10      29.92F
ROCKFORD       CLOUDY    73  62  68 SW5       29.92F
$$


CITY           SKY/WX    TMP DP  RH WIND       PRES   REMARKS
BURLINGTON     PTSUNNY   77  67  71 S10       29.91F
CEDAR RAPIDS   SUNNY     72  62  71 S9        29.91S
DES MOINES     MOSUNNY   74  61  63 SE8       29.89S
KIRKSVILLE     PTSUNNY   77  65  66 VRB6      29.92F
OTTUMWA        CLOUDY    74  64  71 SE7       29.91S
ST LOUIS       PTSUNNY   75  66  73 S9        29.97S
$$


CITY           SKY/WX    TMP DP  RH WIND       PRES   REMARKS
TERRE HAUTE    CLOUDY    65  62  90 W12G18    30.07F
EVANSVILLE     PTSUNNY   76  66  71 NW26G32   30.08R
INDIANAPOLIS   TSTM      73  67  81 S8        30.00
LAFAYETTE      LGT RAIN  66  65  96 S5        30.02S
MADISON        PTSUNNY   71  62  73 S16       29.87R
MILWAUKEE      PTSUNNY   71  68  90 S9        29.88R
$$






USA.gov is the U.S. government's official web portal to all federal, state and local government web resources and services.